Location: Juzet
(42.9779°N, 0.7597°E)
Time: 01:08:51
(UTC+00:00)

CBERS-1 - Pass Details

Date: 14 July 2020
Orbit: 770 x 776 km, 98.6° (Epoch: 04 August)

Event Time Altitude Azimuth Distance (km) Brightness Sun altitude
Rises 02:32:42 0° 10° (N) 3,267 8.4 -16.8°
Reaches altitude 10° 02:35:02 10° 7° (N) 2,334 7.4 -16.5°
Maximum altitude 02:40:07 63° 288° (WNW) 864 4.1 -16.0°
Enters shadow 02:43:03 25° 214° (SW) 1,524 4.9 -15.6°
